Location: Unspecified
(17.6330°N, 0.0000°E)
Time: 16:09:49
(UTC+00:00)

NO-84 - Visible Passes

Search period start: 22 July 2019 00:00
Search period end: 01 August 2019 00:00
Orbit: 330 x 518 km, 55.0° (Epoch: 17 July)

Date Brightness Start Highest point End Pass type
(mag) Time Alt. Az. Time Alt. Az. Time Alt. Az.
23 Jul ? 05:07:05 10° SSE 05:09:10 18° ESE 05:11:11 10° ENE visible
25 Jul ? 05:11:06 10° SW 05:14:02 60° NW 05:16:49 10° NNE visible
26 Jul ? 04:27:00 26° S 04:28:16 45° ESE 04:31:01 10° NE visible
27 Jul ? 03:43:26 16° E 03:43:26 16° E 03:44:39 10° ENE visible
28 Jul ? 04:32:51 23° WNW 04:33:03 23° NW 04:35:25 10° N visible
29 Jul ? 03:49:05 19° NNE 03:49:05 19° NNE 03:50:04 10° NNE visible
